Preview of NWS' New Version of Forecast
This preview is not operational and should not be used for support decisions.

Terminal Aerodrome Forecast (TAF)

Issued by National Weather Service (NWS)

                            
000
FTUS41 KGYX 221441 AAB
TAFRKD
TAF AMD
KRKD 221441Z 2215/2312 22006KT P6SM SCT045 BKN100
     FM230200 27003KT 6SM BR SCT003 BKN100=